owner,sensor,date,latitude,longitude,vertical_datum,sea_water_practical_salinity,qcFlag 
SCCF RECON,ioos:station:SCCF:11:1,2011-11-01T00:00:00Z,26.4679,-82.0631,1.83,21.81,1111122 
SCCF RECON,ioos:station:SCCF:11:1,2011-11-01T01:00:00Z,26.4679,-82.0631,1.827,21.62,1111122 
SCCF RECON,ioos:station:SCCF:11:1,2011-11-01T02:00:00Z,26.4679,-82.0631,1.74,22.76,1111122 
SCCF RECON,ioos:station:SCCF:11:1,2011-11-01T03:00:00Z,26.4679,-82.0631,1.69,22.01,1111122 
SCCF RECON,ioos:station:SCCF:11:1,2011-11-01T04:00:00Z,26.4679,-82.0631,1.7,21.75,1111122 
SCCF RECON,ioos:station:SCCF:11:1,2011-11-01T05:00:00Z,26.4679,-82.0631,1.732,21.52,1111122 
SCCF RECON,ioos:station:SCCF:11:1,2011-11-01T06:00:00Z,26.4679,-82.0631,1.8,21.74,1111122 
SCCF RECON,ioos:station:SCCF:11:1,2011-11-01T07:00:00Z,26.4679,-82.0631,1.878,21.87,1111122 
SCCF RECON,ioos:station:SCCF:11:1,2011-11-01T08:00:00Z,26.4679,-82.0631,1.95,22.56,1111122 
SCCF RECON,ioos:station:SCCF:11:1,2011-11-01T09:00:00Z,26.4679,-82.0631,1.932,22.37,1111122 
SCCF RECON,ioos:station:SCCF:11:1,2011-11-01T10:00:00Z,26.4679,-82.0631,1.855,22.18,1111122 
SCCF RECON,ioos:station:SCCF:11:1,2011-11-01T11:00:00Z,26.4679,-82.0631,1.756,22.4,1111122 
SCCF RECON,ioos:station:SCCF:11:1,2011-11-01T12:00:00Z,26.4679,-82.0631,1.652,22.75,1111122 
SCCF RECON,ioos:station:SCCF:11:1,2011-11-01T13:00:00Z,26.4679,-82.0631,1.552,23.22,1111122 
SCCF RECON,ioos:station:SCCF:11:1,2011-11-01T14:00:00Z,26.4679,-82.0631,1.452,23.46,1111122 
SCCF RECON,ioos:station:SCCF:11:1,2011-11-01T15:00:00Z,26.4679,-82.0631,1.359,23.61,1111122 
SCCF RECON,ioos:station:SCCF:11:1,2011-11-01T16:00:00Z,26.4679,-82.0631,1.294,23.37,1111122 
SCCF RECON,ioos:station:SCCF:11:1,2011-11-01T17:00:00Z,26.4679,-82.0631,1.27,22.86,1111122 
SCCF RECON,ioos:station:SCCF:11:1,2011-11-01T18:00:00Z,26.4679,-82.0631,1.297,23.21,1111122 
SCCF RECON,ioos:station:SCCF:11:1,2011-11-01T19:00:00Z,26.4679,-82.0631,1.396,23.17,1111122 
SCCF RECON,ioos:station:SCCF:11:1,2011-11-01T20:00:00Z,26.4679,-82.0631,1.545,20.8,1111122 
SCCF RECON,ioos:station:SCCF:11:1,2011-11-01T21:00:00Z,26.4679,-82.0631,1.67,20.42,1111122 
SCCF RECON,ioos:station:SCCF:11:1,2011-11-01T22:00:00Z,26.4679,-82.0631,1.764,18.16,1111122 
SCCF RECON,ioos:station:SCCF:11:1,2011-11-01T23:00:00Z,26.4679,-82.0631,1.845,19.03,1111122 
SCCF RECON,ioos:station:SCCF:11:1,2011-11-02T00:00:00Z,26.4679,-82.0631,1.869,19.21,1111122 
SCCF RECON,ioos:station:SCCF:11:1,2011-11-02T01:00:00Z,26.4679,-82.0631,1.835,19.78,1111122 
SCCF RECON,ioos:station:SCCF:11:1,2011-11-02T02:00:00Z,26.4679,-82.0631,1.767,19.82,1111122 
SCCF RECON,ioos:station:SCCF:11:1,2011-11-02T03:00:00Z,26.4679,-82.0631,1.71,20.78,1111122 
SCCF RECON,ioos:station:SCCF:11:1,2011-11-02T04:00:00Z,26.4679,-82.0631,1.664,21.03,1111122 
SCCF RECON,ioos:station:SCCF:11:1,2011-11-02T05:00:00Z,26.4679,-82.0631,1.637,20.94,1111122 
SCCF RECON,ioos:station:SCCF:11:1,2011-11-02T06:00:00Z,26.4679,-82.0631,1.62,21.1,1111122 
SCCF RECON,ioos:station:SCCF:11:1,2011-11-02T07:00:00Z,26.4679,-82.0631,1.641,21.28,1111122 
SCCF RECON,ioos:station:SCCF:11:1,2011-11-02T08:00:00Z,26.4679,-82.0631,1.716,21.44,1111122 
SCCF RECON,ioos:station:SCCF:11:1,2011-11-02T09:00:00Z,26.4679,-82.0631,1.811,21.59,1111122 
SCCF RECON,ioos:station:SCCF:11:1,2011-11-02T10:00:00Z,26.4679,-82.0631,1.877,21.36,1111122 
SCCF RECON,ioos:station:SCCF:11:1,2011-11-02T11:00:00Z,26.4679,-82.0631,1.87,21.34,1111122 
SCCF RECON,ioos:station:SCCF:11:1,2011-11-02T12:00:00Z,26.4679,-82.0631,1.817,21.29,1111122 
SCCF RECON,ioos:station:SCCF:11:1,2011-11-02T13:00:00Z,26.4679,-82.0631,1.721,21.48,1111122 
SCCF RECON,ioos:station:SCCF:11:1,2011-11-02T14:00:00Z,26.4679,-82.0631,1.637,21.95,1111122 
SCCF RECON,ioos:station:SCCF:11:1,2011-11-02T15:00:00Z,26.4679,-82.0631,1.535,22.05,1111122 
SCCF RECON,ioos:station:SCCF:11:1,2011-11-02T16:00:00Z,26.4679,-82.0631,1.459,22.28,1111122 
SCCF RECON,ioos:station:SCCF:11:1,2011-11-02T17:00:00Z,26.4679,-82.0631,1.391,22.44,1111122 
SCCF RECON,ioos:station:SCCF:11:1,2011-11-02T18:00:00Z,26.4679,-82.0631,1.36,22.55,1111122 
SCCF RECON,ioos:station:SCCF:11:1,2011-11-02T19:00:00Z,26.4679,-82.0631,1.417,22.32,1111122 
SCCF RECON,ioos:station:SCCF:11:1,2011-11-02T20:00:00Z,26.4679,-82.0631,1.53,21.46,1111122 
SCCF RECON,ioos:station:SCCF:11:1,2011-11-02T21:00:00Z,26.4679,-82.0631,1.64,19.57,1111122 
SCCF RECON,ioos:station:SCCF:11:1,2011-11-02T22:00:00Z,26.4679,-82.0631,1.721,18.79,1111122 
SCCF RECON,ioos:station:SCCF:11:1,2011-11-02T23:00:00Z,26.4679,-82.0631,1.799,18.79,1111122 
SCCF RECON,ioos:station:SCCF:11:1,2011-11-03T00:00:00Z,26.4679,-82.0631,1.84,18.93,1111122 
SCCF RECON,ioos:station:SCCF:11:1,2011-11-03T01:00:00Z,26.4679,-82.0631,1.85,19.09,1111122 
SCCF RECON,ioos:station:SCCF:11:1,2011-11-03T02:00:00Z,26.4679,-82.0631,1.83,19.6,1111122 
SCCF RECON,ioos:station:SCCF:11:1,2011-11-03T03:00:00Z,26.4679,-82.0631,1.801,20.54,1111122 
SCCF RECON,ioos:station:SCCF:11:1,2011-11-03T04:00:00Z,26.4679,-82.0631,1.76,20.66,1111122 
SCCF RECON,ioos:station:SCCF:11:1,2011-11-03T05:00:00Z,26.4679,-82.0631,1.72,20.83,1111122 
SCCF RECON,ioos:station:SCCF:11:1,2011-11-03T06:00:00Z,26.4679,-82.0631,1.66,20.99,1111122 
SCCF RECON,ioos:station:SCCF:11:1,2011-11-03T07:00:00Z,26.4679,-82.0631,1.64,20.67,1111122 
SCCF RECON,ioos:station:SCCF:11:1,2011-11-03T08:00:00Z,26.4679,-82.0631,1.692,20.52,1111122 
SCCF RECON,ioos:station:SCCF:11:1,2011-11-03T09:00:00Z,26.4679,-82.0631,1.811,21.33,1111122 
SCCF RECON,ioos:station:SCCF:11:1,2011-11-03T10:00:00Z,26.4679,-82.0631,1.93,20.92,1111122 
SCCF RECON,ioos:station:SCCF:11:1,2011-11-03T11:00:00Z,26.4679,-82.0631,1.989,20.55,1111122 
SCCF RECON,ioos:station:SCCF:11:1,2011-11-03T12:00:00Z,26.4679,-82.0631,1.999,20.27,1111122 
SCCF RECON,ioos:station:SCCF:11:1,2011-11-03T13:00:00Z,26.4679,-82.0631,1.95,20.65,1111122 
SCCF RECON,ioos:station:SCCF:11:1,2011-11-03T14:00:00Z,26.4679,-82.0631,1.875,20.69,1111122 
SCCF RECON,ioos:station:SCCF:11:1,2011-11-03T15:00:00Z,26.4679,-82.0631,1.791,21.03,1111122 
SCCF RECON,ioos:station:SCCF:11:1,2011-11-03T16:00:00Z,26.4679,-82.0631,1.715,21.71,1111122 
SCCF RECON,ioos:station:SCCF:11:1,2011-11-03T17:00:00Z,26.4679,-82.0631,1.627,21.45,1111122 
SCCF RECON,ioos:station:SCCF:11:1,2011-11-03T18:00:00Z,26.4679,-82.0631,1.54,20.99,1111122 
SCCF RECON,ioos:station:SCCF:11:1,2011-11-03T19:00:00Z,26.4679,-82.0631,1.5,20.84,1111122 
SCCF RECON,ioos:station:SCCF:11:1,2011-11-03T20:00:00Z,26.4679,-82.0631,1.519,20.77,1111122 
SCCF RECON,ioos:station:SCCF:11:1,2011-11-03T21:00:00Z,26.4679,-82.0631,1.609,20.69,1111122 
SCCF RECON,ioos:station:SCCF:11:1,2011-11-03T22:00:00Z,26.4679,-82.0631,1.719,21.0,1111122 
SCCF RECON,ioos:station:SCCF:11:1,2011-11-03T23:00:00Z,26.4679,-82.0631,1.78,21.77,1111122 
SCCF RECON,ioos:station:SCCF:11:1,2011-11-04T00:00:00Z,26.4679,-82.0631,1.849,21.88,1111122 
SCCF RECON,ioos:station:SCCF:11:1,2011-11-04T01:00:00Z,26.4679,-82.0631,1.911,21.73,1111122 
SCCF RECON,ioos:station:SCCF:11:1,2011-11-04T02:00:00Z,26.4679,-82.0631,1.95,21.38,1111122 
SCCF RECON,ioos:station:SCCF:11:1,2011-11-04T03:00:00Z,26.4679,-82.0631,1.96,21.3,1111122 
SCCF RECON,ioos:station:SCCF:11:1,2011-11-04T04:00:00Z,26.4679,-82.0631,1.91,22.33,1111122 
SCCF RECON,ioos:station:SCCF:11:1,2011-11-04T05:00:00Z,26.4679,-82.0631,1.8,21.21,1111122 
SCCF RECON,ioos:station:SCCF:11:1,2011-11-04T06:00:00Z,26.4679,-82.0631,1.71,21.48,1111122 
SCCF RECON,ioos:station:SCCF:11:1,2011-11-04T07:00:00Z,26.4679,-82.0631,1.65,21.75,1111122 
SCCF RECON,ioos:station:SCCF:11:1,2011-11-04T08:00:00Z,26.4679,-82.0631,1.64,21.5,1111122 
SCCF RECON,ioos:station:SCCF:11:1,2011-11-04T09:00:00Z,26.4679,-82.0631,1.69,21.5,1111122 
SCCF RECON,ioos:station:SCCF:11:1,2011-11-04T10:00:00Z,26.4679,-82.0631,1.78,21.21,1111122 
SCCF RECON,ioos:station:SCCF:11:1,2011-11-04T11:00:00Z,26.4679,-82.0631,1.868,23.24,1111122 
SCCF RECON,ioos:station:SCCF:11:1,2011-11-04T12:00:00Z,26.4679,-82.0631,1.93,23.0,1111122 
SCCF RECON,ioos:station:SCCF:11:1,2011-11-04T13:00:00Z,26.4679,-82.0631,1.97,24.34,1111122 
SCCF RECON,ioos:station:SCCF:11:1,2011-11-04T14:00:00Z,26.4679,-82.0631,2.01,24.3,1111122 
SCCF RECON,ioos:station:SCCF:11:1,2011-11-04T15:00:00Z,26.4679,-82.0631,1.99,25.16,1111122 
SCCF RECON,ioos:station:SCCF:11:1,2011-11-04T16:00:00Z,26.4679,-82.0631,1.952,22.49,1111122 
SCCF RECON,ioos:station:SCCF:11:1,2011-11-04T17:00:00Z,26.4679,-82.0631,1.798,22.01,1111122 
SCCF RECON,ioos:station:SCCF:11:1,2011-11-04T18:00:00Z,26.4679,-82.0631,1.685,22.09,1111122 
SCCF RECON,ioos:station:SCCF:11:1,2011-11-04T19:00:00Z,26.4679,-82.0631,1.636,21.77,1111122 
SCCF RECON,ioos:station:SCCF:11:1,2011-11-04T20:00:00Z,26.4679,-82.0631,1.584,21.73,1111122 
SCCF RECON,ioos:station:SCCF:11:1,2011-11-04T21:00:00Z,26.4679,-82.0631,1.568,21.79,1111122 
SCCF RECON,ioos:station:SCCF:11:1,2011-11-04T22:00:00Z,26.4679,-82.0631,1.612,22.51,1111122 
SCCF RECON,ioos:station:SCCF:11:1,2011-11-04T23:00:00Z,26.4679,-82.0631,1.682,22.56,1111122 
SCCF RECON,ioos:station:SCCF:11:1,2011-11-05T00:00:00Z,26.4679,-82.0631,1.778,22.82,1111122 
SCCF RECON,ioos:station:SCCF:11:1,2011-11-05T01:00:00Z,26.4679,-82.0631,1.865,23.14,1111122 
SCCF RECON,ioos:station:SCCF:11:1,2011-11-05T02:00:00Z,26.4679,-82.0631,1.926,23.2,1111122 
SCCF RECON,ioos:station:SCCF:11:1,2011-11-05T03:00:00Z,26.4679,-82.0631,1.926,23.56,1111122 
SCCF RECON,ioos:station:SCCF:11:1,2011-11-05T04:00:00Z,26.4679,-82.0631,1.879,22.84,1111122 
SCCF RECON,ioos:station:SCCF:11:1,2011-11-05T05:00:00Z,26.4679,-82.0631,1.736,22.46,1111122 
SCCF RECON,ioos:station:SCCF:11:1,2011-11-05T06:00:00Z,26.4679,-82.0631,1.619,22.28,1111122 
SCCF RECON,ioos:station:SCCF:11:1,2011-11-05T07:00:00Z,26.4679,-82.0631,1.516,22.33,1111122 
SCCF RECON,ioos:station:SCCF:11:1,2011-11-05T08:00:00Z,26.4679,-82.0631,1.46,22.27,1111122 
SCCF RECON,ioos:station:SCCF:11:1,2011-11-05T09:00:00Z,26.4679,-82.0631,1.44,23.78,1111122 
SCCF RECON,ioos:station:SCCF:11:1,2011-11-05T10:00:00Z,26.4679,-82.0631,1.48,23.43,1111122 
SCCF RECON,ioos:station:SCCF:11:1,2011-11-05T11:00:00Z,26.4679,-82.0631,1.591,24.26,1111122 
SCCF RECON,ioos:station:SCCF:11:1,2011-11-05T12:00:00Z,26.4679,-82.0631,1.704,26.72,1111122 
SCCF RECON,ioos:station:SCCF:11:1,2011-11-05T13:00:00Z,26.4679,-82.0631,1.756,26.36,1111122 
SCCF RECON,ioos:station:SCCF:11:1,2011-11-05T14:00:00Z,26.4679,-82.0631,1.79,26.53,1111122 
SCCF RECON,ioos:station:SCCF:11:1,2011-11-05T15:00:00Z,26.4679,-82.0631,1.812,26.39,1111122 
SCCF RECON,ioos:station:SCCF:11:1,2011-11-05T16:00:00Z,26.4679,-82.0631,1.779,26.15,1111122 
SCCF RECON,ioos:station:SCCF:11:1,2011-11-05T17:00:00Z,26.4679,-82.0631,1.728,25.66,1111122 
SCCF RECON,ioos:station:SCCF:11:1,2011-11-05T18:00:00Z,26.4679,-82.0631,1.67,25.23,1111122 
SCCF RECON,ioos:station:SCCF:11:1,2011-11-05T19:00:00Z,26.4679,-82.0631,1.63,24.99,1111122 
SCCF RECON,ioos:station:SCCF:11:1,2011-11-05T20:00:00Z,26.4679,-82.0631,1.59,24.25,1111122 
SCCF RECON,ioos:station:SCCF:11:1,2011-11-05T21:00:00Z,26.4679,-82.0631,1.59,24.37,1111122 
SCCF RECON,ioos:station:SCCF:11:1,2011-11-05T22:00:00Z,26.4679,-82.0631,1.65,24.24,1111122 
SCCF RECON,ioos:station:SCCF:11:1,2011-11-05T23:00:00Z,26.4679,-82.0631,1.729,23.31,1111122 
SCCF RECON,ioos:station:SCCF:11:1,2011-11-06T00:00:00Z,26.4679,-82.0631,1.801,23.17,1111122 
SCCF RECON,ioos:station:SCCF:11:1,2011-11-06T01:00:00Z,26.4679,-82.0631,1.86,22.23,1111122 
SCCF RECON,ioos:station:SCCF:11:1,2011-11-06T02:00:00Z,26.4679,-82.0631,1.892,22.27,1111122 
SCCF RECON,ioos:station:SCCF:11:1,2011-11-06T03:00:00Z,26.4679,-82.0631,1.923,22.79,1111122 
SCCF RECON,ioos:station:SCCF:11:1,2011-11-06T04:00:00Z,26.4679,-82.0631,1.931,22.06,1111122 
SCCF RECON,ioos:station:SCCF:11:1,2011-11-06T05:00:00Z,26.4679,-82.0631,1.878,23.06,1111122 
SCCF RECON,ioos:station:SCCF:11:1,2011-11-06T06:00:00Z,26.4679,-82.0631,1.76,22.63,1111122 
SCCF RECON,ioos:station:SCCF:11:1,2011-11-06T07:00:00Z,26.4679,-82.0631,1.629,23.28,1111122 
SCCF RECON,ioos:station:SCCF:11:1,2011-11-06T08:00:00Z,26.4679,-82.0631,1.52,23.5,1111122 
SCCF RECON,ioos:station:SCCF:11:1,2011-11-06T09:00:00Z,26.4679,-82.0631,1.463,23.34,1111122 
SCCF RECON,ioos:station:SCCF:11:1,2011-11-06T10:00:00Z,26.4679,-82.0631,1.47,23.28,1111122 
SCCF RECON,ioos:station:SCCF:11:1,2011-11-06T11:00:00Z,26.4679,-82.0631,1.589,23.67,1111122 
SCCF RECON,ioos:station:SCCF:11:1,2011-11-06T12:00:00Z,26.4679,-82.0631,1.727,24.56,1111122 
SCCF RECON,ioos:station:SCCF:11:1,2011-11-06T13:00:00Z,26.4679,-82.0631,1.823,24.16,1111122 
SCCF RECON,ioos:station:SCCF:11:1,2011-11-06T14:00:00Z,26.4679,-82.0631,1.877,22.51,1111122 
SCCF RECON,ioos:station:SCCF:11:1,2011-11-06T15:00:00Z,26.4679,-82.0631,1.939,22.79,1111122 
SCCF RECON,ioos:station:SCCF:11:1,2011-11-06T16:00:00Z,26.4679,-82.0631,1.95,23.64,1111122 
SCCF RECON,ioos:station:SCCF:11:1,2011-11-06T17:00:00Z,26.4679,-82.0631,1.905,23.7,1111122 
SCCF RECON,ioos:station:SCCF:11:1,2011-11-06T18:00:00Z,26.4679,-82.0631,1.788,23.22,1111122 
SCCF RECON,ioos:station:SCCF:11:1,2011-11-06T19:00:00Z,26.4679,-82.0631,1.731,23.56,1111122 
SCCF RECON,ioos:station:SCCF:11:1,2011-11-06T20:00:00Z,26.4679,-82.0631,1.651,23.81,1111122 
SCCF RECON,ioos:station:SCCF:11:1,2011-11-06T21:00:00Z,26.4679,-82.0631,1.632,23.62,1111122 
SCCF RECON,ioos:station:SCCF:11:1,2011-11-06T22:00:00Z,26.4679,-82.0631,1.67,24.0,1111122 
SCCF RECON,ioos:station:SCCF:11:1,2011-11-06T23:00:00Z,26.4679,-82.0631,1.759,25.21,1111122 
SCCF RECON,ioos:station:SCCF:11:1,2011-11-07T00:00:00Z,26.4679,-82.0631,1.861,24.6,1111122 
SCCF RECON,ioos:station:SCCF:11:1,2011-11-07T01:00:00Z,26.4679,-82.0631,1.909,24.44,1111122 
SCCF RECON,ioos:station:SCCF:11:1,2011-11-07T02:00:00Z,26.4679,-82.0631,1.94,24.63,1111122 
SCCF RECON,ioos:station:SCCF:11:1,2011-11-07T03:00:00Z,26.4679,-82.0631,1.95,25.03,1111122 
SCCF RECON,ioos:station:SCCF:11:1,2011-11-07T04:00:00Z,26.4679,-82.0631,1.95,24.72,1111122 
SCCF RECON,ioos:station:SCCF:11:1,2011-11-07T05:00:00Z,26.4679,-82.0631,1.898,24.55,1111122 
SCCF RECON,ioos:station:SCCF:11:1,2011-11-07T06:00:00Z,26.4679,-82.0631,1.808,24.31,1111122 
SCCF RECON,ioos:station:SCCF:11:1,2011-11-07T07:00:00Z,26.4679,-82.0631,1.669,24.17,1111122 
SCCF RECON,ioos:station:SCCF:11:1,2011-11-07T08:00:00Z,26.4679,-82.0631,1.534,23.87,1111122 
SCCF RECON,ioos:station:SCCF:11:1,2011-11-07T09:00:00Z,26.4679,-82.0631,1.449,23.72,1111122 
SCCF RECON,ioos:station:SCCF:11:1,2011-11-07T10:00:00Z,26.4679,-82.0631,1.382,23.67,1111122 
SCCF RECON,ioos:station:SCCF:11:1,2011-11-07T11:00:00Z,26.4679,-82.0631,1.431,23.64,1111122 
SCCF RECON,ioos:station:SCCF:11:1,2011-11-07T12:00:00Z,26.4679,-82.0631,1.577,24.64,1111122 
SCCF RECON,ioos:station:SCCF:11:1,2011-11-07T13:00:00Z,26.4679,-82.0631,1.72,24.01,1111122 
SCCF RECON,ioos:station:SCCF:11:1,2011-11-07T14:00:00Z,26.4679,-82.0631,1.831,22.74,1111122 
SCCF RECON,ioos:station:SCCF:11:1,2011-11-07T15:00:00Z,26.4679,-82.0631,1.926,23.49,1111122 
SCCF RECON,ioos:station:SCCF:11:1,2011-11-07T16:00:00Z,26.4679,-82.0631,1.97,23.54,1111122 
SCCF RECON,ioos:station:SCCF:11:1,2011-11-07T17:00:00Z,26.4679,-82.0631,1.974,23.59,1111122 
SCCF RECON,ioos:station:SCCF:11:1,2011-11-07T18:00:00Z,26.4679,-82.0631,1.91,24.1,1111122 
SCCF RECON,ioos:station:SCCF:11:1,2011-11-07T19:00:00Z,26.4679,-82.0631,1.81,23.64,1111122 
SCCF RECON,ioos:station:SCCF:11:1,2011-11-07T20:00:00Z,26.4679,-82.0631,1.761,23.79,1111122 
SCCF RECON,ioos:station:SCCF:11:1,2011-11-07T21:00:00Z,26.4679,-82.0631,1.752,23.83,1111122 
SCCF RECON,ioos:station:SCCF:11:1,2011-11-07T22:00:00Z,26.4679,-82.0631,1.794,24.72,1111122 
SCCF RECON,ioos:station:SCCF:11:1,2011-11-07T23:00:00Z,26.4679,-82.0631,1.85,25.3,1111122 
SCCF RECON,ioos:station:SCCF:11:1,2011-11-08T00:00:00Z,26.4679,-82.0631,1.95,26.02,1111122 
SCCF RECON,ioos:station:SCCF:11:1,2011-11-08T01:00:00Z,26.4679,-82.0631,2.031,25.86,1111122 
SCCF RECON,ioos:station:SCCF:11:1,2011-11-08T02:00:00Z,26.4679,-82.0631,2.08,25.21,1111122 
SCCF RECON,ioos:station:SCCF:11:1,2011-11-08T03:00:00Z,26.4679,-82.0631,2.11,25.58,1111122 
SCCF RECON,ioos:station:SCCF:11:1,2011-11-08T04:00:00Z,26.4679,-82.0631,2.1,25.46,1111122 
SCCF RECON,ioos:station:SCCF:11:1,2011-11-08T05:00:00Z,26.4679,-82.0631,2.05,25.64,1111122 
SCCF RECON,ioos:station:SCCF:11:1,2011-11-08T06:00:00Z,26.4679,-82.0631,1.931,24.81,1111122 
SCCF RECON,ioos:station:SCCF:11:1,2011-11-08T07:00:00Z,26.4679,-82.0631,1.782,24.27,1111122 
SCCF RECON,ioos:station:SCCF:11:1,2011-11-08T08:00:00Z,26.4679,-82.0631,1.65,24.14,1111122 
SCCF RECON,ioos:station:SCCF:11:1,2011-11-08T09:00:00Z,26.4679,-82.0631,1.54,24.0,1111122 
SCCF RECON,ioos:station:SCCF:11:1,2011-11-08T10:00:00Z,26.4679,-82.0631,1.447,23.94,1111122 
SCCF RECON,ioos:station:SCCF:11:1,2011-11-08T11:00:00Z,26.4679,-82.0631,1.44,24.17,1111122 
SCCF RECON,ioos:station:SCCF:11:1,2011-11-08T12:00:00Z,26.4679,-82.0631,1.53,24.86,1111122 
SCCF RECON,ioos:station:SCCF:11:1,2011-11-08T13:00:00Z,26.4679,-82.0631,1.7,25.28,1111122 
SCCF RECON,ioos:station:SCCF:11:1,2011-11-08T14:00:00Z,26.4679,-82.0631,1.841,23.22,1111122 
SCCF RECON,ioos:station:SCCF:11:1,2011-11-08T15:00:00Z,26.4679,-82.0631,1.931,24.38,1111122 
SCCF RECON,ioos:station:SCCF:11:1,2011-11-08T16:00:00Z,26.4679,-82.0631,2.023,24.69,1111122 
SCCF RECON,ioos:station:SCCF:11:1,2011-11-08T17:00:00Z,26.4679,-82.0631,2.06,25.13,1111122 
SCCF RECON,ioos:station:SCCF:11:1,2011-11-08T18:00:00Z,26.4679,-82.0631,2.037,25.74,1111122 
SCCF RECON,ioos:station:SCCF:11:1,2011-11-08T19:00:00Z,26.4679,-82.0631,1.974,24.62,1111122 
SCCF RECON,ioos:station:SCCF:11:1,2011-11-08T20:00:00Z,26.4679,-82.0631,1.89,24.31,1111122 
SCCF RECON,ioos:station:SCCF:11:1,2011-11-08T21:00:00Z,26.4679,-82.0631,1.82,24.21,1111122 
SCCF RECON,ioos:station:SCCF:11:1,2011-11-08T22:00:00Z,26.4679,-82.0631,1.818,24.21,1111122 
SCCF RECON,ioos:station:SCCF:11:1,2011-11-08T23:00:00Z,26.4679,-82.0631,1.82,24.89,1111122 
SCCF RECON,ioos:station:SCCF:11:1,2011-11-09T00:00:00Z,26.4679,-82.0631,1.879,24.76,1111122 
SCCF RECON,ioos:station:SCCF:11:1,2011-11-09T01:00:00Z,26.4679,-82.0631,1.985,25.04,1111122 
SCCF RECON,ioos:station:SCCF:11:1,2011-11-09T02:00:00Z,26.4679,-82.0631,2.09,25.7,1111122 
SCCF RECON,ioos:station:SCCF:11:1,2011-11-09T03:00:00Z,26.4679,-82.0631,2.16,26.13,1111122 
SCCF RECON,ioos:station:SCCF:11:1,2011-11-09T04:00:00Z,26.4679,-82.0631,2.19,25.51,1111122 
SCCF RECON,ioos:station:SCCF:11:1,2011-11-09T05:00:00Z,26.4679,-82.0631,2.17,26.15,1111122 
SCCF RECON,ioos:station:SCCF:11:1,2011-11-09T06:00:00Z,26.4679,-82.0631,2.05,25.27,1111122 
SCCF RECON,ioos:station:SCCF:11:1,2011-11-09T07:00:00Z,26.4679,-82.0631,1.871,24.72,1111122 
SCCF RECON,ioos:station:SCCF:11:1,2011-11-09T08:00:00Z,26.4679,-82.0631,1.74,24.56,1111122 
SCCF RECON,ioos:station:SCCF:11:1,2011-11-09T09:00:00Z,26.4679,-82.0631,1.622,24.48,1111122 
SCCF RECON,ioos:station:SCCF:11:1,2011-11-09T10:00:00Z,26.4679,-82.0631,1.519,24.48,1111122 
SCCF RECON,ioos:station:SCCF:11:1,2011-11-09T11:00:00Z,26.4679,-82.0631,1.44,24.43,1111122 
SCCF RECON,ioos:station:SCCF:11:1,2011-11-09T12:00:00Z,26.4679,-82.0631,1.48,24.37,1111122 
SCCF RECON,ioos:station:SCCF:11:1,2011-11-09T13:00:00Z,26.4679,-82.0631,1.644,25.08,1111122 
SCCF RECON,ioos:station:SCCF:11:1,2011-11-09T14:00:00Z,26.4679,-82.0631,1.81,25.35,1111122 
SCCF RECON,ioos:station:SCCF:11:1,2011-11-09T15:00:00Z,26.4679,-82.0631,1.929,23.72,1111122 
SCCF RECON,ioos:station:SCCF:11:1,2011-11-09T16:00:00Z,26.4679,-82.0631,2.01,25.19,1111122 
SCCF RECON,ioos:station:SCCF:11:1,2011-11-09T17:00:00Z,26.4679,-82.0631,2.083,25.34,1111122 
SCCF RECON,ioos:station:SCCF:11:1,2011-11-09T18:00:00Z,26.4679,-82.0631,2.08,25.47,1111122 
SCCF RECON,ioos:station:SCCF:11:1,2011-11-09T19:00:00Z,26.4679,-82.0631,2.014,25.18,1111122 
SCCF RECON,ioos:station:SCCF:11:1,2011-11-09T20:00:00Z,26.4679,-82.0631,1.929,24.66,1111122 
SCCF RECON,ioos:station:SCCF:11:1,2011-11-09T21:00:00Z,26.4679,-82.0631,1.885,24.56,1111122 
SCCF RECON,ioos:station:SCCF:11:1,2011-11-09T22:00:00Z,26.4679,-82.0631,1.853,24.94,1111122 
SCCF RECON,ioos:station:SCCF:11:1,2011-11-09T23:00:00Z,26.4679,-82.0631,1.811,24.48,1111122 
SCCF RECON,ioos:station:SCCF:11:1,2011-11-10T00:00:00Z,26.4679,-82.0631,1.85,24.76,1111122 
SCCF RECON,ioos:station:SCCF:11:1,2011-11-10T01:00:00Z,26.4679,-82.0631,1.941,24.86,1111122 
SCCF RECON,ioos:station:SCCF:11:1,2011-11-10T02:00:00Z,26.4679,-82.0631,2.061,24.89,1111122 
SCCF RECON,ioos:station:SCCF:11:1,2011-11-10T03:00:00Z,26.4679,-82.0631,2.185,25.46,1111122 
SCCF RECON,ioos:station:SCCF:11:1,2011-11-10T04:00:00Z,26.4679,-82.0631,2.25,26.58,1111122 
SCCF RECON,ioos:station:SCCF:11:1,2011-11-10T05:00:00Z,26.4679,-82.0631,2.266,25.94,1111122 
SCCF RECON,ioos:station:SCCF:11:1,2011-11-10T06:00:00Z,26.4679,-82.0631,2.17,25.99,1111122 
SCCF RECON,ioos:station:SCCF:11:1,2011-11-10T07:00:00Z,26.4679,-82.0631,2.0,24.96,1111122 
SCCF RECON,ioos:station:SCCF:11:1,2011-11-10T08:00:00Z,26.4679,-82.0631,1.833,24.77,1111122 
SCCF RECON,ioos:station:SCCF:11:1,2011-11-10T09:00:00Z,26.4679,-82.0631,1.69,24.73,1111122 
SCCF RECON,ioos:station:SCCF:11:1,2011-11-10T10:00:00Z,26.4679,-82.0631,1.559,24.68,1111122 
SCCF RECON,ioos:station:SCCF:11:1,2011-11-10T11:00:00Z,26.4679,-82.0631,1.45,24.58,1111122 
SCCF RECON,ioos:station:SCCF:11:1,2011-11-10T12:00:00Z,26.4679,-82.0631,1.41,24.51,1111122 
SCCF RECON,ioos:station:SCCF:11:1,2011-11-10T13:00:00Z,26.4679,-82.0631,1.464,24.65,1111122 
SCCF RECON,ioos:station:SCCF:11:1,2011-11-10T14:00:00Z,26.4679,-82.0631,1.64,26.12,1111122 
SCCF RECON,ioos:station:SCCF:11:1,2011-11-10T15:00:00Z,26.4679,-82.0631,1.81,25.41,1111122 
SCCF RECON,ioos:station:SCCF:11:1,2011-11-10T16:00:00Z,26.4679,-82.0631,1.921,25.34,1111122 
SCCF RECON,ioos:station:SCCF:11:1,2011-11-10T17:00:00Z,26.4679,-82.0631,2.01,25.24,1111122 
SCCF RECON,ioos:station:SCCF:11:1,2011-11-10T18:00:00Z,26.4679,-82.0631,2.04,25.32,1111122 
SCCF RECON,ioos:station:SCCF:11:1,2011-11-10T19:00:00Z,26.4679,-82.0631,2.039,25.68,1111122 
SCCF RECON,ioos:station:SCCF:11:1,2011-11-10T20:00:00Z,26.4679,-82.0631,1.97,25.28,1111122 
SCCF RECON,ioos:station:SCCF:11:1,2011-11-10T21:00:00Z,26.4679,-82.0631,1.89,25.05,1111122 
SCCF RECON,ioos:station:SCCF:11:1,2011-11-10T22:00:00Z,26.4679,-82.0631,1.829,25.01,1111122 
SCCF RECON,ioos:station:SCCF:11:1,2011-11-10T23:00:00Z,26.4679,-82.0631,1.815,25.0,1111122 
SCCF RECON,ioos:station:SCCF:11:1,2011-11-11T00:00:00Z,26.4679,-82.0631,1.82,24.99,1111122 
SCCF RECON,ioos:station:SCCF:11:1,2011-11-11T01:00:00Z,26.4679,-82.0631,1.89,25.48,1111122 
SCCF RECON,ioos:station:SCCF:11:1,2011-11-11T02:00:00Z,26.4679,-82.0631,2.0,25.52,1111122 
SCCF RECON,ioos:station:SCCF:11:1,2011-11-11T03:00:00Z,26.4679,-82.0631,2.11,25.68,1111122 
SCCF RECON,ioos:station:SCCF:11:1,2011-11-11T04:00:00Z,26.4679,-82.0631,2.2,26.29,1111122 
SCCF RECON,ioos:station:SCCF:11:1,2011-11-11T05:00:00Z,26.4679,-82.0631,2.233,26.2,1111122 
SCCF RECON,ioos:station:SCCF:11:1,2011-11-11T06:00:00Z,26.4679,-82.0631,2.202,25.8,1111122 
SCCF RECON,ioos:station:SCCF:11:1,2011-11-11T07:00:00Z,26.4679,-82.0631,2.034,25.75,1111122 
SCCF RECON,ioos:station:SCCF:11:1,2011-11-11T08:00:00Z,26.4679,-82.0631,1.889,25.32,1111122 
SCCF RECON,ioos:station:SCCF:11:1,2011-11-11T09:00:00Z,26.4679,-82.0631,1.759,25.28,1111122 
SCCF RECON,ioos:station:SCCF:11:1,2011-11-11T10:00:00Z,26.4679,-82.0631,1.619,25.27,1111122 
SCCF RECON,ioos:station:SCCF:11:1,2011-11-11T11:00:00Z,26.4679,-82.0631,1.482,25.15,1111122 
SCCF RECON,ioos:station:SCCF:11:1,2011-11-11T12:00:00Z,26.4679,-82.0631,1.359,25.12,1111122 
SCCF RECON,ioos:station:SCCF:11:1,2011-11-11T13:00:00Z,26.4679,-82.0631,1.304,24.93,1111122 
SCCF RECON,ioos:station:SCCF:11:1,2011-11-11T14:00:00Z,26.4679,-82.0631,1.345,25.18,1111122 
SCCF RECON,ioos:station:SCCF:11:1,2011-11-11T15:00:00Z,26.4679,-82.0631,1.469,27.09,1111122 
SCCF RECON,ioos:station:SCCF:11:1,2011-11-11T16:00:00Z,26.4679,-82.0631,1.619,26.54,1111122 
SCCF RECON,ioos:station:SCCF:11:1,2011-11-11T17:00:00Z,26.4679,-82.0631,1.741,25.28,1111122 